SCP
0 0 0 0 0 0 0 0 0 0 0 0 0 0 0 0 0 -0 0 0 0 0 0 0 0 0 0 0 0 -0 0 0 -0 -0 -0 -0 0 0 0 0 0 0 0 0 0
0 0 0 0 0 0 0 0 0 0 0 0 0 0 0 0 -0 0 0 0 -0 0 0 0 0 0 0 0 0 0 0 0 0 -0 -0 0 0 0 0 0 0 0 0 0 0
0 0 0 0 0 0 0 0 0 0 0 0 0 0 0 0 -0 -0 0 0 0 0 0 0 0 0 0 0 0 0 0 0 0 0 0 0 0 0 0 0 0 0 0 0 0
0 0 0 0 0 0 0 0 0 0 0 0 0 0 0 0 0 0 0 1 0 0 0 0 0 0 0 0 0 0 0 0 0 0 0 0 0 -0 0 0 0 0 0 0 0
0 0 0 0 0 0 0 0 0 0 0 0 0 0 0 0 0 0 0 0 0 0 0 0 0 0 0 0 0 0 0 0 0 -0 0 0 0 0 0 0 0 0 0 0 0
0 0 0 0 0 0 0 0 0 0 0 0 0 0 0 0 0 0 0 0 0 0 0 0 0 0 0 0 0 0 0 0 -0 -0 0 0 0 0 0 0 0 0 0 0 0
0 0 0 0 0 0 0 0 0 0 0 0 0 0 0 0 0 0 0 0 0 0 0 0 0 0 0 0 0 -0 0 -0 -0 -0 0 0 0 0 0 0 0 0 0 0 0
0 0 0 0 0 0 0 0 0 0 0 0 0 0 0 0 0 0 -0 -0 0 0 0 0 0 0 0 0 0 0 -0 -0 -0 0 0 0 0 0 0 0 0 0 0 0 0
0 0 0 0 0 0 0 0 0 0 0 0 0 0 -0 0 0 -0 0 0 0 0 0 0 0 0 0 0 -0 -0 0 -0 0 0 0 0 0 0 0 0 0 0 0 0 0
0 0 0 0 0 0 0 0 0 0 0 0 0 0 0 0 0 0 0 0 0 0 0 -0 -0 0 -0 -0 -0 0 0 0 -0 -0 0 -0 0 0 0 0 0 0 0 0 0
0 0 0 0 0 0 0 0 0 0 0 0 0 0 0 0 0 0 0 0 0 0 0 0 0 0 -0 0 0 0 0 -0 0 -0 -0 0 0 0 0 -0 0 0 0 0 0
0 0 0 0 0 0 0 0 0 0 0 0 0 0 0 0 0 0 0 0 0 0 0 0 0 0 0 0 0 0 -0 0 0 0 0 -0 -0 0 0 0 0 0 0 0 0
0 0 0 0 0 0 0 0 0 0 0 0 0 0 0 0 0 0 0 0 0 0 0 0 0 0 0 0 0 0 0 0 -0 -0 0 0 0 0 0 0 0 0 0 0 0
0 0 0 0 0 0 0 0 0 0 0 0 0 0 0 0 0 0 0 0 0 0 0 0 0 0 0 0 0 -0 -0 -0 0 0 -0 0 -0 0 0 0 0 0 0 0 0
0 0 0 0 0 0 0 0 0 0 0 0 0 0 0 0 0 0 0 0 0 0 0 0 0 0 0 0 -0 0 0 -0 -0 0 -0 -0 -0 0 0 -0 -0 0 0 0 0
0 0 0 0 0 0 0 0 0 0 0 0 0 0 0 0 0 0 0 0 0 0 0 0 0 0 0 -0 0 0 -0 -0 0 -0 -0 0 0 -0 0 0 0 0 0 0 0
0 0 0 0 0 0 0 0 0 0 0 0 0 0 0 0 0 0 0 0 0 0 0 0 0 0 -0 0 -0 -0 -0 -0 -0 0 0 0 -0 0 0 0 0 0 0 0 0
0 0 0 0 0 0 0 0 0 0 0 0 0 0 0 0 0 -0 0 0 0 0 0 0 0 0 -0 -0 -0 -0 0 0 0 0 0 0 -0 0 0 0 0 0 0 0 0
0 0 0 0 0 0 0 0 0 0 0 0 0 0 0 0 0 -0 0 0 0 0 0 0 0 0 -0 -0 -0 -0 -0 0 0 0 0 0 0 -0 0 0 0 0 0 0 0
0 0 0 0 -0 0 0 0 0 0 0 0 0 0 0 0 0 0 0 0 0 0 0 0 0 0 0 -0 0 -0 0 0 0 0 -0 0 0 0 0 0 0 0 0 0 0
0 0 0 0 0 0 0 0 0 0 0 0 0 0 0 0 0 0 0 0 0 0 0 0 0 0 0 0 -0 -0 -0 0 0 0 0 0 -0 -0 0 0 0 0 0 0 0
0 0 0 0 0 0 -0 0 0 0 0 0 0 0 0 0 0 0 0 0 0 0 0 0 0 0 0 0 0 -0 0 0 0 0 0 0 0 0 0 0 0 0 0 0 0
0 0 -0 0 0 0 0 0 0 0 0 0 0 0 0 0 0 0 0 0 0 0 0 0 0 0 0 0 0 0 0 0 0 0 0 0 -0 0 0 0 0 0 0 0 -0
0 -0 0 0 0 0 -0 0 0 0 0 0 0 0 0 0 0 0 0 0 0 0 0 0 0 0 0 0 0 0 0 0 0 0 0 -0 0 0 0 0 0 0 0 -0 -0
0 -0 0 0 0 -0 -0 -0 0 0 0 0 0 0 0 -0 0 0 0 0 0 0 0 0 0 0 0 0 0 0 0 0 0 0 0 0 0 0 0 0 0 0 -0 -0 -0
0 0 0 0 0 0 0 0 0 -0 0 0 0 0 0 -0 -0 0 0 0 0 0 0 0 0 0 0 0 0 0 0 0 0 0 0 0 -0 0 0 0 0 0 -0 -0 -0
0 0 0 0 0 0 0 -0 -0 -0 0 0 0 0 0 -0 -0 -0 0 0 0 0 0 0 0 0 0 0 0 0 0 0 0 0 0 0 0 0 0 0 0 0 -0 -0 -0
Wind_Speed_500mb
46 47 44 47 47 45 43 44 46 45 45 44 44 40 37 44 42 45 59 54 40 40 24 31 38 38 35 48 43 45 12 23 35 31 26 39 12 24 34 6 22 27 25 30 55
47 50 51 50 51 51 48 47 47 48 48 46 46 42 38 44 50 63 60 48 41 35 51 40 41 39 45 43 46 31 12 37 32 33 27 32 27 28 27 36 15 35 32 34 39
44 46 50 52 53 56 55 54 51 51 51 50 48 43 39 36 48 39 18 21 38 46 47 45 43 44 55 60 61 45 31 32 43 54 60 24 29 42 32 9 8 41 39 40 35
42 43 46 46 48 52 57 57 55 53 52 51 49 47 39 26 14 20 17 4 16 49 53 48 56 56 44 35 66 35 57 56 59 61 55 12 40 41 36 12 10 12 21 33 36
47 48 47 49 48 46 53 54 56 53 50 50 49 46 43 28 60 41 25 34 19 31 66 72 56 59 39 52 51 43 40 63 66 60 36 35 36 42 31 15 8 6 13 23 27
39 43 44 48 52 54 51 53 56 55 51 48 47 44 41 34 78 65 61 55 50 31 43 63 52 76 46 45 44 55 51 53 60 53 32 33 40 34 35 29 22 23 27 30 33
38 36 39 42 45 52 53 52 51 56 52 49 46 42 50 86 47 28 31 53 47 55 49 57 65 50 39 20 49 55 42 44 45 40 27 50 20 15 37 32 39 37 36 36 38
40 39 39 40 44 46 51 55 52 52 47 49 46 38 39 54 63 76 62 50 54 51 50 36 44 63 59 36 45 37 38 37 21 23 48 32 28 22 30 28 39 50 41 48 49
41 42 43 43 42 44 51 55 49 41 40 39 35 33 34 30 54 72 72 83 57 50 58 51 50 51 35 26 24 21 26 31 27 37 42 24 36 29 43 36 51 38 49 57 46
46 45 43 43 47 49 52 52 32 26 35 27 29 13 45 45 43 40 51 66 60 42 61 62 54 26 23 19 33 25 19 22 34 41 37 32 22 13 45 50 52 58 50 50 44
49 44 44 46 44 46 56 39 4 9 36 35 41 54 21 11 22 34 36 44 62 51 27 56 18 33 49 41 28 32 30 39 43 45 39 17 13 17 18 37 24 37 42 32 52
51 51 48 46 44 45 45 31 27 14 28 54 75 78 72 59 37 49 43 50 43 40 32 27 49 44 40 33 37 37 40 46 44 35 15 36 44 17 18 23 36 50 54 30 45
49 49 47 47 46 26 30 42 45 23 18 38 69 85 72 72 80 69 50 70 37 39 46 52 41 40 40 43 39 37 42 42 36 41 29 9 10 12 15 19 38 53 50 36 65
48 44 42 42 32 19 30 27 29 35 11 19 29 43 76 62 53 88 85 58 41 45 44 44 40 36 45 42 37 38 35 42 43 33 13 5 10 6 10 19 18 27 37 65 72
48 45 35 33 38 36 23 31 34 28 11 15 31 34 68 76 29 67 103 70 44 44 42 34 48 50 47 44 47 43 32 35 40 31 11 12 6 10 7 17 16 5 13 53 70
51 45 32 35 35 14 32 41 20 5 21 15 8 33 33 64 39 9 99 87 59 38 46 41 36 39 56 44 46 45 26 33 35 28 23 14 16 13 11 11 3 12 45 66 63
52 41 35 33 41 18 18 21 4 15 21 11 13 17 45 37 51 35 45 52 48 43 46 43 49 43 44 45 48 34 29 21 9 11 11 14 9 15 16 14 15 19 48 59 61
49 36 32 37 30 12 19 4 22 25 45 52 51 56 31 24 42 56 34 50 50 44 19 30 28 59 50 61 36 40 33 20 15 9 9 14 11 16 23 19 40 61 58 62 67
45 34 34 31 22 21 12 17 17 23 34 39 61 39 17 48 36 47 52 55 60 56 35 37 35 34 54 40 51 28 35 28 11 5 8 9 10 14 12 17 20 39 59 63 66
32 29 43 15 23 28 8 24 21 23 38 41 41 31 42 44 32 37 30 56 53 60 43 13 10 42 45 39 38 54 13 16 3 16 11 10 7 12 18 19 18 21 40 56 64
18 17 13 15 24 14 7 12 20 34 40 36 39 39 41 39 38 37 24 27 57 54 60 36 9 14 39 46 48 29 33 13 14 13 12 3 13 17 27 17 28 23 55 63 66
13 5 9 34 7 7 12 14 17 38 51 38 38 30 31 36 35 22 23 22 19 35 59 60 10 21 33 36 49 36 29 17 17 10 9 11 10 14 18 22 30 36 59 63 62
15 16 8 33 6 7 11 30 36 40 36 26 23 37 27 17 16 21 27 51 44 35 39 42 38 8 14 21 26 49 39 18 12 11 16 12 11 10 16 20 45 46 58 66 62
11 7 1 12 15 13 15 20 25 33 34 25 27 34 29 27 26 30 47 27 68 37 50 41 29 48 25 17 19 52 32 33 19 10 14 20 9 12 15 18 21 47 67 73 69
7 7 12 5 7 13 15 21 33 34 35 43 17 31 30 22 32 39 41 50 40 24 39 11 48 36 51 40 21 43 43 43 34 19 28 18 18 24 24 21 28 70 71 68 70
11 8 16 24 25 17 13 21 32 31 24 20 24 26 31 28 24 43 36 27 21 25 36 19 27 46 37 40 45 30 56 45 37 27 13 26 26 17 29 45 36 59 67 66 70
18 22 16 16 11 9 7 19 29 33 25 28 29 32 19 19 16 22 37 44 43 39 34 15 12 25 43 39 25 28 34 46 39 25 27 23 13 8 10 25 30 52 71 72 74
Wind_Direction_500mb
285 288 288 288 289 290 290 289 289 290 291 292 291 292 294 293 287 278 265 258 252 239 235 218 230 228 222 243 242 246 254 262 269 277 284 330 11 305 334 228 281 204 167 169 174
285 284 286 285 286 286 283 283 284 285 286 286 286 291 294 296 297 281 282 274 244 218 233 222 224 219 228 240 233 234 232 249 260 273 292 305 329 332 329 304 281 121 142 168 184
292 287 284 282 282 284 284 281 280 280 283 283 285 288 290 298 308 287 282 273 239 213 229 240 232 219 229 237 242 241 241 252 261 264 275 292 315 300 293 289 15 163 176 187 185
298 296 292 286 279 277 278 280 279 276 275 278 280 282 282 279 250 206 191 124 231 217 225 234 235 237 232 234 238 244 245 249 255 262 252 280 296 285 278 260 41 142 184 194 192
297 294 293 293 287 277 273 273 275 275 275 276 275 277 277 249 240 237 244 298 292 226 220 229 236 245 243 237 238 241 247 256 263 271 252 280 266 267 266 284 270 147 180 198 212
310 304 302 291 291 287 276 271 270 272 272 272 271 269 268 244 258 260 254 258 263 245 230 222 226 231 261 249 249 252 255 259 261 272 259 257 261 271 253 253 231 230 217 214 218
310 315 311 298 290 290 287 276 269 266 266 268 269 270 258 246 247 231 218 236 237 247 241 233 227 242 243 287 274 269 273 275 270 268 264 258 252 258 257 242 254 242 221 222 212
330 318 311 315 305 295 290 287 275 267 262 261 264 266 256 261 266 251 233 228 221 224 240 245 241 237 250 259 279 282 276 260 259 269 266 245 252 237 254 243 253 243 212 219 229
332 331 323 317 313 311 299 286 280 277 257 255 261 250 274 278 240 254 239 234 221 221 230 234 235 227 249 237 264 261 256 257 263 254 263 243 254 214 228 242 263 232 230 241 234
328 325 326 322 312 313 313 295 284 259 251 250 244 265 257 241 244 258 233 222 221 223 222 223 233 229 241 233 227 236 259 250 256 254 259 259 242 203 213 225 242 256 243 243 208
329 326 324 323 320 314 318 335 194 223 219 201 198 207 236 275 266 241 229 209 210 236 221 208 204 216 218 228 231 237 245 248 251 247 252 321 285 216 225 257 240 268 280 255 203
316 318 322 321 323 314 312 293 247 332 288 251 244 240 251 264 280 269 213 190 197 219 213 226 228 223 226 220 234 226 248 260 272 276 126 229 250 236 223 237 250 255 258 253 170
317 309 311 313 320 336 329 314 328 326 268 261 239 238 237 240 249 252 237 203 194 208 214 219 223 222 228 220 231 232 230 250 260 276 284 244 233 237 253 264 288 256 247 179 170
319 313 306 304 312 299 301 297 352 276 279 264 221 247 222 224 255 233 236 220 212 207 210 233 225 221 218 230 226 240 228 240 254 265 256 266 270 289 291 294 298 266 178 165 165
316 314 304 293 290 292 273 338 343 157 273 217 214 211 203 189 143 211 218 224 216 205 201 210 207 210 226 213 223 239 225 233 242 253 252 290 324 259 259 290 285 150 254 171 168
316 303 294 282 277 311 348 323 334 227 245 264 136 175 161 203 220 12 193 216 220 226 221 221 227 209 222 231 221 230 229 233 243 246 246 226 212 256 234 232 141 129 133 153 161
319 303 274 264 259 251 296 330 260 227 286 242 237 183 186 190 213 237 184 204 208 202 218 218 223 225 223 220 232 220 220 236 260 222 203 217 271 239 259 202 166 139 139 150 161
319 305 285 264 264 249 301 256 226 239 248 293 320 318 294 183 205 212 209 207 213 210 173 208 220 214 213 220 211 225 208 213 214 178 226 245 230 254 222 155 127 133 146 153 155
318 309 284 269 243 210 228 229 226 244 280 305 334 322 350 346 343 196 218 207 209 208 207 193 225 190 213 215 214 222 211 202 207 205 198 214 250 339 113 127 121 120 137 148 158
320 310 298 247 198 201 199 239 254 270 294 310 315 311 319 328 330 353 219 216 212 210 218 250 195 230 210 214 234 215 184 191 179 195 246 281 283 224 157 163 140 127 141 151 158
337 317 354 197 189 189 230 259 271 274 295 313 312 315 311 315 306 318 262 249 207 200 207 225 218 241 211 204 214 218 218 184 149 153 176 220 277 232 176 164 149 147 149 156 163
329 296 9 163 148 195 243 261 294 297 292 292 287 281 278 294 302 303 275 316 234 199 201 210 198 235 233 207 207 215 207 169 185 213 176 171 255 159 153 146 144 150 155 162 165
303 284 355 185 215 216 255 274 279 275 292 299 286 303 271 292 299 291 306 328 334 349 211 193 224 294 253 264 209 206 195 175 132 132 189 182 244 234 133 133 148 152 158 164 167
305 309 6 213 269 262 296 286 286 287 289 278 291 300 277 262 274 286 302 312 330 331 327 194 196 214 222 211 193 197 183 187 161 159 173 217 206 167 149 140 145 155 163 170 173
277 271 328 295 296 292 302 286 288 293 271 275 278 292 277 249 276 278 289 318 326 342 349 295 203 201 225 247 246 196 188 188 202 173 187 195 169 179 173 174 174 163 167 169 175
289 332 336 299 305 307 304 291 288 290 311 297 288 253 271 253 247 280 305 318 301 323 346 327 225 202 222 223 241 258 190 188 198 194 183 178 234 176 192 186 171 160 166 173 177
300 307 327 292 292 300 278 302 305 310 291 285 295 312 284 247 257 293 289 275 269 284 302 286 331 189 215 222 238 239 218 193 202 196 184 196 181 206 189 185 178 167 170 175 179
Wind_Speed_850mb
46 47 44 47 47 45 43 44 46 45 45 44 44 40 37 44 42 45 59 54 40 40 24 31 38 38 35 48 43 45 12 23 35 31 26 39 12 24 34 6 22 27 25 30 55
47 50 51 50 51 51 48 47 47 48 48 46 46 42 38 44 50 63 60 48 41 35 51 40 41 39 45 43 46 31 12 37 32 33 27 32 27 28 27 36 15 35 32 34 39
44 46 50 52 53 56 55 54 51 51 51 50 48 43 39 36 48 39 18 21 38 46 47 45 43 44 55 60 61 45 31 32 43 54 60 24 29 42 32 9 8 41 39 40 35
42 43 46 46 48 52 57 57 55 53 52 51 49 47 39 26 14 20 17 4 16 49 53 48 56 56 44 35 66 35 57 56 59 61 55 12 40 41 36 12 10 12 21 33 36
47 48 47 49 48 46 53 54 56 53 50 50 49 46 43 28 60 41 25 34 19 31 66 72 56 59 39 52 51 43 40 63 66 60 36 35 36 42 31 15 8 6 13 23 27
39 43 44 48 52 54 51 53 56 55 51 48 47 44 41 34 78 65 61 55 50 31 43 63 52 76 46 45 44 55 51 53 60 53 32 33 40 34 35 29 22 23 27 30 33
38 36 39 42 45 52 53 52 51 56 52 49 46 42 50 86 47 28 31 53 47 55 49 57 65 50 39 20 49 55 42 44 45 40 27 50 20 15 37 32 39 37 36 36 38
40 39 39 40 44 46 51 55 52 52 47 49 46 38 39 54 63 76 62 50 54 51 50 36 44 63 59 36 45 37 38 37 21 23 48 32 28 22 30 28 39 50 41 48 49
41 42 43 43 42 44 51 55 49 41 40 39 35 33 34 30 54 72 72 83 57 50 58 51 50 51 35 26 24 21 26 31 27 37 42 24 36 29 43 36 51 38 49 57 46
46 45 43 43 47 49 52 52 32 26 35 27 29 13 45 45 43 40 51 66 60 42 61 62 54 26 23 19 33 25 19 22 34 41 37 32 22 13 45 50 52 58 50 50 44
49 44 44 46 44 46 56 39 4 9 36 35 41 54 21 11 22 34 36 44 62 51 27 56 18 33 49 41 28 32 30 39 43 45 39 17 13 17 18 37 24 37 42 32 52
51 51 48 46 44 45 45 31 27 14 28 54 75 78 72 59 37 49 43 50 43 40 32 27 49 44 40 33 37 37 40 46 44 35 15 36 44 17 18 23 36 50 54 30 45
49 49 47 47 46 26 30 42 45 23 18 38 69 85 72 72 80 69 50 70 37 39 46 52 41 40 40 43 39 37 42 42 36 41 29 9 10 12 15 19 38 53 50 36 65
48 44 42 42 32 19 30 27 29 35 11 19 29 43 76 62 53 88 85 58 41 45 44 44 40 36 45 42 37 38 35 42 43 33 13 5 10 6 10 19 18 27 37 65 72
48 45 35 33 38 36 23 31 34 28 11 15 31 34 68 76 29 67 103 70 44 44 42 34 48 50 47 44 47 43 32 35 40 31 11 12 6 10 7 17 16 5 13 53 70
51 45 32 35 35 14 32 41 20 5 21 15 8 33 33 64 39 9 99 87 59 38 46 41 36 39 56 44 46 45 26 33 35 28 23 14 16 13 11 11 3 12 45 66 63
52 41 35 33 41 18 18 21 4 15 21 11 13 17 45 37 51 35 45 52 48 43 46 43 49 43 44 45 48 34 29 21 9 11 11 14 9 15 16 14 15 19 48 59 61
49 36 32 37 30 12 19 4 22 25 45 52 51 56 31 24 42 56 34 50 50 44 19 30 28 59 50 61 36 40 33 20 15 9 9 14 11 16 23 19 40 61 58 62 67
45 34 34 31 22 21 12 17 17 23 34 39 61 39 17 48 36 47 52 55 60 56 35 37 35 34 54 40 51 28 35 28 11 5 8 9 10 14 12 17 20 39 59 63 66
32 29 43 15 23 28 8 24 21 23 38 41 41 31 42 44 32 37 30 56 53 60 43 13 10 42 45 39 38 54 13 16 3 16 11 10 7 12 18 19 18 21 40 56 64
18 17 13 15 24 14 7 12 20 34 40 36 39 39 41 39 38 37 24 27 57 54 60 36 9 14 39 46 48 29 33 13 14 13 12 3 13 17 27 17 28 23 55 63 66
13 5 9 34 7 7 12 14 17 38 51 38 38 30 31 36 35 22 23 22 19 35 59 60 10 21 33 36 49 36 29 17 17 10 9 11 10 14 18 22 30 36 59 63 62
15 16 8 33 6 7 11 30 36 40 36 26 23 37 27 17 16 21 27 51 44 35 39 42 38 8 14 21 26 49 39 18 12 11 16 12 11 10 16 20 45 46 58 66 62
11 7 1 12 15 13 15 20 25 33 34 25 27 34 29 27 26 30 47 27 68 37 50 41 29 48 25 17 19 52 32 33 19 10 14 20 9 12 15 18 21 47 67 73 69
7 7 12 5 7 13 15 21 33 34 35 43 17 31 30 22 32 39 41 50 40 24 39 11 48 36 51 40 21 43 43 43 34 19 28 18 18 24 24 21 28 70 71 68 70
11 8 16 24 25 17 13 21 32 31 24 20 24 26 31 28 24 43 36 27 21 25 36 19 27 46 37 40 45 30 56 45 37 27 13 26 26 17 29 45 36 59 67 66 70
18 22 16 16 11 9 7 19 29 33 25 28 29 32 19 19 16 22 37 44 43 39 34 15 12 25 43 39 25 28 34 46 39 25 27 23 13 8 10 25 30 52 71 72 74
Wind_Direction_850mb
285 288 288 288 289 290 290 289 289 290 291 292 291 292 294 293 287 278 265 258 252 239 235 218 230 228 222 243 242 246 254 262 269 277 284 330 11 305 334 228 281 204 167 169 174
285 284 286 285 286 286 283 283 284 285 286 286 286 291 294 296 297 281 282 274 244 218 233 222 224 219 228 240 233 234 232 249 260 273 292 305 329 332 329 304 281 121 142 168 184
292 287 284 282 282 284 284 281 280 280 283 283 285 288 290 298 308 287 282 273 239 213 229 240 232 219 229 237 242 241 241 252 261 264 275 292 315 300 293 289 15 163 176 187 185
298 296 292 286 279 277 278 280 279 276 275 278 280 282 282 279 250 206 191 124 231 217 225 234 235 237 232 234 238 244 245 249 255 262 252 280 296 285 278 260 41 142 184 194 192
297 294 293 293 287 277 273 273 275 275 275 276 275 277 277 249 240 237 244 298 292 226 220 229 236 245 243 237 238 241 247 256 263 271 252 280 266 267 266 284 270 147 180 198 212
310 304 302 291 291 287 276 271 270 272 272 272 271 269 268 244 258 260 254 258 263 245 230 222 226 231 261 249 249 252 255 259 261 272 259 257 261 271 253 253 231 230 217 214 218
310 315 311 298 290 290 287 276 269 266 266 268 269 270 258 246 247 231 218 236 237 247 241 233 227 242 243 287 274 269 273 275 270 268 264 258 252 258 257 242 254 242 221 222 212
330 318 311 315 305 295 290 287 275 267 262 261 264 266 256 261 266 251 233 228 221 224 240 245 241 237 250 259 279 282 276 260 259 269 266 245 252 237 254 243 253 243 212 219 229
332 331 323 317 313 311 299 286 280 277 257 255 261 250 274 278 240 254 239 234 221 221 230 234 235 227 249 237 264 261 256 257 263 254 263 243 254 214 228 242 263 232 230 241 234
328 325 326 322 312 313 313 295 284 259 251 250 244 265 257 241 244 258 233 222 221 223 222 223 233 229 241 233 227 236 259 250 256 254 259 259 242 203 213 225 242 256 243 243 208
329 326 324 323 320 314 318 335 194 223 219 201 198 207 236 275 266 241 229 209 210 236 221 208 204 216 218 228 231 237 245 248 251 247 252 321 285 216 225 257 240 268 280 255 203
316 318 322 321 323 314 312 293 247 332 288 251 244 240 251 264 280 269 213 190 197 219 213 226 228 223 226 220 234 226 248 260 272 276 126 229 250 236 223 237 250 255 258 253 170
317 309 311 313 320 336 329 314 328 326 268 261 239 238 237 240 249 252 237 203 194 208 214 219 223 222 228 220 231 232 230 250 260 276 284 244 233 237 253 264 288 256 247 179 170
319 313 306 304 312 299 301 297 352 276 279 264 221 247 222 224 255 233 236 220 212 207 210 233 225 221 218 230 226 240 228 240 254 265 256 266 270 289 291 294 298 266 178 165 165
316 314 304 293 290 292 273 338 343 157 273 217 214 211 203 189 143 211 218 224 216 205 201 210 207 210 226 213 223 239 225 233 242 253 252 290 324 259 259 290 285 150 254 171 168
316 303 294 282 277 311 348 323 334 227 245 264 136 175 161 203 220 12 193 216 220 226 221 221 227 209 222 231 221 230 229 233 243 246 246 226 212 256 234 232 141 129 133 153 161
319 303 274 264 259 251 296 330 260 227 286 242 237 183 186 190 213 237 184 204 208 202 218 218 223 225 223 220 232 220 220 236 260 222 203 217 271 239 259 202 166 139 139 150 161
319 305 285 264 264 249 301 256 226 239 248 293 320 318 294 183 205 212 209 207 213 210 173 208 220 214 213 220 211 225 208 213 214 178 226 245 230 254 222 155 127 133 146 153 155
318 309 284 269 243 210 228 229 226 244 280 305 334 322 350 346 343 196 218 207 209 208 207 193 225 190 213 215 214 222 211 202 207 205 198 214 250 339 113 127 121 120 137 148 158
320 310 298 247 198 201 199 239 254 270 294 310 315 311 319 328 330 353 219 216 212 210 218 250 195 230 210 214 234 215 184 191 179 195 246 281 283 224 157 163 140 127 141 151 158
337 317 354 197 189 189 230 259 271 274 295 313 312 315 311 315 306 318 262 249 207 200 207 225 218 241 211 204 214 218 218 184 149 153 176 220 277 232 176 164 149 147 149 156 163
329 296 9 163 148 195 243 261 294 297 292 292 287 281 278 294 302 303 275 316 234 199 201 210 198 235 233 207 207 215 207 169 185 213 176 171 255 159 153 146 144 150 155 162 165
303 284 355 185 215 216 255 274 279 275 292 299 286 303 271 292 299 291 306 328 334 349 211 193 224 294 253 264 209 206 195 175 132 132 189 182 244 234 133 133 148 152 158 164 167
305 309 6 213 269 262 296 286 286 287 289 278 291 300 277 262 274 286 302 312 330 331 327 194 196 214 222 211 193 197 183 187 161 159 173 217 206 167 149 140 145 155 163 170 173
277 271 328 295 296 292 302 286 288 293 271 275 278 292 277 249 276 278 289 318 326 342 349 295 203 201 225 247 246 196 188 188 202 173 187 195 169 179 173 174 174 163 167 169 175
289 332 336 299 305 307 304 291 288 290 311 297 288 253 271 253 247 280 305 318 301 323 346 327 225 202 222 223 241 258 190 188 198 194 183 178 234 176 192 186 171 160 166 173 177
300 307 327 292 292 300 278 302 305 310 291 285 295 312 284 247 257 293 289 275 269 284 302 286 331 189 215 222 238 239 218 193 202 196 184 196 181 206 189 185 178 167 170 175 179